Time,TemperatureF,DewpointF,PressureIn,WindDirection,WindDirectionDegrees,WindSpeedMPH,WindSpeedGustMPH,Humidity,HourlyPrecipIn,Conditions,Clouds,dailyrainin,SoftwareType,DateUTC
2013-12-05 00:04:00,30.7,23.1,29.97,East,96,0.0,0.0,73,0.00,,---,0.00,VWS V14.01,2013-12-05 08:04:00,
2013-12-05 00:09:00,30.6,23.0,29.97,East,97,0.0,0.0,73,0.00,,---,0.00,VWS V14.01,2013-12-05 08:09:00,
2013-12-05 00:14:00,30.6,23.0,29.97,East,98,0.0,0.0,73,0.00,,---,0.00,VWS V14.01,2013-12-05 08:14:00,
2013-12-05 00:19:00,30.6,23.3,29.97,ENE,59,0.0,0.0,74,0.00,,---,0.00,VWS V14.01,2013-12-05 08:19:00,
2013-12-05 00:24:00,30.6,23.0,29.97,East,91,0.0,0.0,73,0.00,,---,0.00,VWS V14.01,2013-12-05 08:24:00,
2013-12-05 00:29:00,30.8,23.2,29.97,East,79,1.0,0.0,73,0.00,,---,0.00,VWS V14.01,2013-12-05 08:29:00,
2013-12-05 00:34:00,31.0,23.4,29.97,ENE,78,0.0,0.0,73,0.00,,---,0.00,VWS V14.01,2013-12-05 08:34:00,
2013-12-05 00:39:00,31.3,23.7,29.97,East,79,0.0,0.0,73,0.00,,---,0.00,VWS V14.01,2013-12-05 08:39:00,
2013-12-05 00:44:00,31.4,23.4,29.96,ENE,78,0.0,0.0,72,0.00,,---,0.00,VWS V14.01,2013-12-05 08:44:00,
2013-12-05 00:49:00,31.4,23.4,29.97,East,79,0.0,0.0,72,0.00,,---,0.00,VWS V14.01,2013-12-05 08:49:00,
2013-12-05 00:54:00,31.3,23.3,29.96,ENE,78,0.0,0.0,72,0.00,,---,0.00,VWS V14.01,2013-12-05 08:54:00,
2013-12-05 00:59:00,31.2,23.2,29.96,ENE,78,0.0,0.0,72,0.00,,---,0.00,VWS V14.01,2013-12-05 08:59:00,
2013-12-05 01:04:00,31.1,23.1,29.97,East,80,0.0,0.0,72,0.00,,---,0.00,VWS V14.01,2013-12-05 09:04:00,
2013-12-05 01:09:00,31.0,23.4,29.96,ENE,78,0.0,0.0,73,0.00,,---,0.00,VWS V14.01,2013-12-05 09:09:00,
2013-12-05 01:14:00,31.0,23.4,29.96,ENE,67,0.0,0.0,73,0.00,,---,0.00,VWS V14.01,2013-12-05 09:14:00,
2013-12-05 01:19:00,31.1,23.5,29.97,ESE,108,0.0,0.0,73,0.00,,---,0.00,VWS V14.01,2013-12-05 09:19:00,
2013-12-05 01:24:00,31.2,23.2,29.96,East,94,0.0,0.0,72,0.00,,---,0.00,VWS V14.01,2013-12-05 09:24:00,
2013-12-05 01:29:00,31.2,23.6,29.97,East,99,0.0,0.0,73,0.00,,---,0.00,VWS V14.01,2013-12-05 09:29:00,
2013-12-05 01:34:00,31.2,23.2,29.97,East,100,0.0,0.0,72,0.00,,---,0.00,VWS V14.01,2013-12-05 09:34:00,
2013-12-05 01:39:00,31.2,23.6,29.97,East,101,0.0,0.0,73,0.00,,---,0.00,VWS V14.01,2013-12-05 09:39:00,
2013-12-05 01:44:00,31.1,23.5,29.97,NE,40,0.0,0.0,73,0.00,,---,0.00,VWS V14.01,2013-12-05 09:44:00,
2013-12-05 01:49:00,31.2,23.2,29.97,East,88,0.0,0.0,72,0.00,,---,0.00,VWS V14.01,2013-12-05 09:49:00,
2013-12-05 01:54:00,31.2,23.6,29.97,East,82,0.0,0.0,73,0.00,,---,0.00,VWS V14.01,2013-12-05 09:54:00,
2013-12-05 01:59:00,31.1,23.5,29.98,WSW,242,0.0,0.0,73,0.00,,---,0.00,VWS V14.01,2013-12-05 09:59:00,
2013-12-05 02:05:00,31.0,23.4,29.98,East,91,4.0,0.0,73,0.00,,---,0.00,VWS V14.01,2013-12-05 10:05:00,
2013-12-05 02:10:00,31.0,23.0,29.98,ESE,105,0.0,0.0,72,0.00,,---,0.00,VWS V14.01,2013-12-05 10:10:00,
2013-12-05 02:15:00,31.0,23.0,29.98,ESE,117,5.0,0.0,72,0.00,,---,0.00,VWS V14.01,2013-12-05 10:15:00,
2013-12-05 02:20:00,30.8,22.9,29.98,ESE,114,0.0,0.0,72,0.00,,---,0.00,VWS V14.01,2013-12-05 10:20:00,
2013-12-05 02:25:00,30.7,23.1,29.98,East,96,1.0,0.0,73,0.00,,---,0.00,VWS V14.01,2013-12-05 10:25:00,
2013-12-05 02:30:00,30.5,22.9,29.98,East,101,1.0,0.0,73,0.00,,---,0.00,VWS V14.01,2013-12-05 10:30:00,
2013-12-05 02:35:00,30.4,23.1,29.98,ESE,113,0.0,0.0,74,0.00,,---,0.00,VWS V14.01,2013-12-05 10:35:00,
2013-12-05 02:40:00,30.3,23.0,29.98,East,88,0.0,0.0,74,0.00,,---,0.00,VWS V14.01,2013-12-05 10:40:00,
2013-12-05 02:45:00,30.3,23.0,29.98,East,91,0.0,0.0,74,0.00,,---,0.00,VWS V14.01,2013-12-05 10:45:00,
2013-12-05 02:50:00,30.2,22.9,29.98,East,90,0.0,0.0,74,0.00,,---,0.00,VWS V14.01,2013-12-05 10:50:00,
2013-12-05 02:55:00,30.0,23.0,29.98,East,90,0.0,0.0,75,0.00,,---,0.00,VWS V14.01,2013-12-05 10:55:00,
2013-12-05 03:00:00,29.7,22.8,29.98,East,90,0.0,0.0,75,0.00,,---,0.00,VWS V14.01,2013-12-05 11:00:00,
2013-12-05 03:05:00,29.4,22.5,29.98,East,90,0.0,0.0,75,0.00,,---,0.00,VWS V14.01,2013-12-05 11:05:00,
2013-12-05 03:10:00,29.2,22.6,29.98,East,89,0.0,0.0,76,0.00,,---,0.00,VWS V14.01,2013-12-05 11:10:00,
2013-12-05 03:15:00,28.9,22.3,29.98,East,91,0.0,0.0,76,0.00,,---,0.00,VWS V14.01,2013-12-05 11:15:00,
2013-12-05 03:20:00,28.8,22.5,29.98,East,89,0.0,0.0,77,0.00,,---,0.00,VWS V14.01,2013-12-05 11:20:00,
2013-12-05 03:25:00,28.8,22.8,29.98,East,89,0.0,0.0,78,0.00,,---,0.00,VWS V14.01,2013-12-05 11:25:00,
2013-12-05 03:30:00,28.7,22.7,29.98,East,91,0.0,0.0,78,0.00,,---,0.00,VWS V14.01,2013-12-05 11:30:00,
2013-12-05 03:35:00,28.7,22.7,29.98,East,92,0.0,0.0,78,0.00,,---,0.00,VWS V14.01,2013-12-05 11:35:00,
2013-12-05 03:40:00,28.6,22.6,29.98,NE,36,0.0,0.0,78,0.00,,---,0.00,VWS V14.01,2013-12-05 11:40:00,
2013-12-05 03:45:00,28.5,22.5,29.98,NE,36,0.0,0.0,78,0.00,,---,0.00,VWS V14.01,2013-12-05 11:45:00,
2013-12-05 03:50:00,28.5,22.5,29.98,NE,35,0.0,0.0,78,0.00,,---,0.00,VWS V14.01,2013-12-05 11:50:00,
2013-12-05 03:55:00,28.5,22.5,29.98,NE,36,0.0,0.0,78,0.00,,---,0.00,VWS V14.01,2013-12-05 11:55:00,
2013-12-05 04:00:00,28.5,22.5,29.98,NE,34,0.0,0.0,78,0.00,,---,0.00,VWS V14.01,2013-12-05 12:00:00,
2013-12-05 04:05:00,28.5,22.5,29.98,ENE,63,0.0,0.0,78,0.00,,---,0.00,VWS V14.01,2013-12-05 12:05:00,
2013-12-05 04:10:00,28.6,22.6,29.98,ENE,64,0.0,0.0,78,0.00,,---,0.00,VWS V14.01,2013-12-05 12:10:00,
2013-12-05 04:15:00,28.6,22.6,29.98,ENE,63,0.0,0.0,78,0.00,,---,0.00,VWS V14.01,2013-12-05 12:15:00,
2013-12-05 04:20:00,28.6,22.6,29.98,East,100,0.0,0.0,78,0.00,,---,0.00,VWS V14.01,2013-12-05 12:20:00,
2013-12-05 04:25:00,28.7,22.7,29.98,SE,142,2.0,0.0,78,0.00,,---,0.00,VWS V14.01,2013-12-05 12:25:00,
2013-12-05 04:30:00,28.7,22.7,29.98,East,92,0.0,0.0,78,0.00,,---,0.00,VWS V14.01,2013-12-05 12:30:00,
2013-12-05 04:35:00,28.8,22.8,29.98,East,92,0.0,0.0,78,0.00,,---,0.00,VWS V14.01,2013-12-05 12:35:00,
2013-12-05 04:41:00,28.7,22.4,29.98,East,91,0.0,0.0,77,0.00,,---,0.00,VWS V14.01,2013-12-05 12:41:00,
2013-12-05 04:46:00,28.7,22.7,29.98,East,90,0.0,0.0,78,0.00,,---,0.00,VWS V14.01,2013-12-05 12:46:00,
2013-12-05 04:51:00,28.7,22.7,29.98,East,92,0.0,0.0,78,0.00,,---,0.00,VWS V14.01,2013-12-05 12:51:00,
2013-12-05 04:56:00,28.5,22.5,29.99,East,90,0.0,0.0,78,0.00,,---,0.00,VWS V14.01,2013-12-05 12:56:00,
2013-12-05 05:01:00,28.5,23.1,29.99,East,90,0.0,0.0,80,0.00,,---,0.00,VWS V14.01,2013-12-05 13:01:00,
2013-12-05 05:06:00,28.5,23.1,29.99,East,91,0.0,0.0,80,0.00,,---,0.00,VWS V14.01,2013-12-05 13:06:00,
2013-12-05 05:11:00,28.5,22.8,29.99,East,91,0.0,0.0,79,0.00,,---,0.00,VWS V14.01,2013-12-05 13:11:00,
2013-12-05 05:16:00,28.4,22.7,29.99,East,92,0.0,0.0,79,0.00,,---,0.00,VWS V14.01,2013-12-05 13:16:00,
2013-12-05 05:21:00,28.3,22.3,29.99,East,90,0.0,0.0,78,0.00,,---,0.00,VWS V14.01,2013-12-05 13:21:00,
2013-12-05 05:26:00,28.3,22.6,29.99,East,91,0.0,0.0,79,0.00,,---,0.00,VWS V14.01,2013-12-05 13:26:00,
2013-12-05 05:31:00,28.2,22.5,29.99,East,91,0.0,0.0,79,0.00,,---,0.00,VWS V14.01,2013-12-05 13:31:00,
2013-12-05 05:36:00,28.2,22.5,29.99,East,92,0.0,0.0,79,0.00,,---,0.00,VWS V14.01,2013-12-05 13:36:00,
2013-12-05 05:41:00,28.1,22.4,30.00,East,90,0.0,0.0,79,0.00,,---,0.00,VWS V14.01,2013-12-05 13:41:00,
2013-12-05 05:46:00,28.0,22.3,30.00,East,96,0.0,0.0,79,0.00,,---,0.00,VWS V14.01,2013-12-05 13:46:00,
2013-12-05 05:51:00,27.9,22.2,30.00,East,95,0.0,0.0,79,0.00,,---,0.00,VWS V14.01,2013-12-05 13:51:00,
2013-12-05 05:56:00,27.8,22.1,30.00,East,96,0.0,0.0,79,0.00,,---,0.00,VWS V14.01,2013-12-05 13:56:00,
2013-12-05 06:01:00,27.8,22.1,30.00,East,96,0.0,0.0,79,0.00,,---,0.00,VWS V14.01,2013-12-05 14:01:00,
2013-12-05 06:06:00,27.8,22.1,30.00,East,96,0.0,0.0,79,0.00,,---,0.00,VWS V14.01,2013-12-05 14:06:00,
2013-12-05 06:11:00,27.7,22.0,30.00,East,96,0.0,0.0,79,0.00,,---,0.00,VWS V14.01,2013-12-05 14:11:00,
2013-12-05 06:16:00,27.6,22.0,30.00,East,97,0.0,0.0,79,0.00,,---,0.00,VWS V14.01,2013-12-05 14:16:00,
2013-12-05 06:21:00,27.6,22.0,30.00,East,97,0.0,0.0,79,0.00,,---,0.00,VWS V14.01,2013-12-05 14:21:00,
2013-12-05 06:26:00,27.5,21.9,30.00,East,96,0.0,0.0,79,0.00,,---,0.00,VWS V14.01,2013-12-05 14:26:00,
2013-12-05 06:31:00,27.5,21.9,30.01,East,97,0.0,0.0,79,0.00,,---,0.00,VWS V14.01,2013-12-05 14:31:00,
2013-12-05 06:36:00,27.4,21.8,30.01,East,96,0.0,0.0,79,0.00,,---,0.00,VWS V14.01,2013-12-05 14:36:00,
2013-12-05 06:41:00,27.3,21.7,30.01,East,96,0.0,0.0,79,0.00,,---,0.00,VWS V14.01,2013-12-05 14:41:00,
2013-12-05 06:46:00,27.2,21.6,30.01,East,98,0.0,0.0,79,0.00,,---,0.00,VWS V14.01,2013-12-05 14:46:00,
2013-12-05 06:51:00,27.2,21.6,30.01,East,96,0.0,0.0,79,0.00,,---,0.00,VWS V14.01,2013-12-05 14:51:00,
2013-12-05 06:56:00,27.1,21.8,30.01,East,97,0.0,0.0,80,0.00,,---,0.00,VWS V14.01,2013-12-05 14:56:00,
2013-12-05 07:01:00,27.0,21.7,30.01,East,98,0.0,0.0,80,0.00,,---,0.00,VWS V14.01,2013-12-05 15:01:00,
2013-12-05 07:06:00,26.9,21.6,30.01,East,96,0.0,0.0,80,0.00,,---,0.00,VWS V14.01,2013-12-05 15:06:00,
2013-12-05 07:11:00,26.9,21.6,30.01,East,96,0.0,0.0,80,0.00,,---,0.00,VWS V14.01,2013-12-05 15:11:00,
2013-12-05 07:17:00,26.9,21.6,30.02,East,96,0.0,0.0,80,0.00,,---,0.00,VWS V14.01,2013-12-05 15:17:00,
2013-12-05 07:22:00,27.0,21.7,30.02,East,96,0.0,0.0,80,0.00,,---,0.00,VWS V14.01,2013-12-05 15:22:00,
2013-12-05 07:27:00,27.0,21.7,30.02,East,96,0.0,0.0,80,0.00,,---,0.00,VWS V14.01,2013-12-05 15:27:00,
2013-12-05 07:32:00,27.1,21.8,30.02,East,97,0.0,0.0,80,0.00,,---,0.00,VWS V14.01,2013-12-05 15:32:00,
2013-12-05 07:37:00,27.1,21.5,30.02,East,96,0.0,0.0,79,0.00,,---,0.00,VWS V14.01,2013-12-05 15:37:00,
2013-12-05 07:42:00,27.2,21.6,30.02,East,96,0.0,0.0,79,0.00,,---,0.00,VWS V14.01,2013-12-05 15:42:00,
2013-12-05 07:47:00,27.3,21.7,30.02,East,96,0.0,0.0,79,0.00,,---,0.00,VWS V14.01,2013-12-05 15:47:00,
2013-12-05 07:52:00,27.4,21.8,30.03,East,96,0.0,0.0,79,0.00,,---,0.00,VWS V14.01,2013-12-05 15:52:00,
2013-12-05 07:57:00,27.5,21.9,30.03,East,97,0.0,0.0,79,0.00,,---,0.00,VWS V14.01,2013-12-05 15:57:00,
2013-12-05 08:02:00,27.6,22.0,30.03,East,96,0.0,0.0,79,0.00,,---,0.00,VWS V14.01,2013-12-05 16:02:00,
2013-12-05 08:07:00,27.8,22.1,30.03,East,88,0.0,0.0,79,0.00,,---,0.00,VWS V14.01,2013-12-05 16:07:00,
2013-12-05 08:12:00,27.9,21.9,30.03,East,88,0.0,0.0,78,0.00,,---,0.00,VWS V14.01,2013-12-05 16:12:00,
2013-12-05 08:17:00,28.0,22.0,30.03,North,350,0.0,0.0,78,0.00,,---,0.00,VWS V14.01,2013-12-05 16:17:00,
2013-12-05 08:22:00,28.1,21.8,30.03,North,349,0.0,0.0,77,0.00,,---,0.00,VWS V14.01,2013-12-05 16:22:00,
2013-12-05 08:27:00,28.2,21.9,30.03,North,349,0.0,0.0,77,0.00,,---,0.00,VWS V14.01,2013-12-05 16:27:00,
2013-12-05 08:32:00,28.2,22.2,30.03,NE,47,1.0,0.0,78,0.00,,---,0.00,VWS V14.01,2013-12-05 16:32:00,
2013-12-05 08:37:00,28.3,22.3,30.03,NE,46,0.0,0.0,78,0.00,,---,0.00,VWS V14.01,2013-12-05 16:37:00,
2013-12-05 08:42:00,28.4,22.1,30.04,NE,46,0.0,0.0,77,0.00,,---,0.00,VWS V14.01,2013-12-05 16:42:00,
2013-12-05 08:47:00,28.6,22.0,30.04,ENE,63,0.0,0.0,76,0.00,,---,0.00,VWS V14.01,2013-12-05 16:47:00,
2013-12-05 08:52:00,28.9,22.3,30.04,ENE,63,0.0,0.0,76,0.00,,---,0.00,VWS V14.01,2013-12-05 16:52:00,
2013-12-05 08:57:00,29.2,22.9,30.04,ENE,63,0.0,0.0,77,0.00,,---,0.00,VWS V14.01,2013-12-05 16:57:00,
2013-12-05 09:02:00,29.6,23.0,30.04,ENE,63,0.0,0.0,76,0.00,,---,0.00,VWS V14.01,2013-12-05 17:02:00,
2013-12-05 09:07:00,29.9,23.3,30.04,ENE,63,0.0,0.0,76,0.00,,---,0.00,VWS V14.01,2013-12-05 17:07:00,
2013-12-05 09:12:00,30.7,23.1,30.04,East,100,2.0,0.0,73,0.00,,---,0.00,VWS V14.01,2013-12-05 17:12:00,
2013-12-05 09:17:00,31.6,23.6,30.04,East,98,0.0,0.0,72,0.00,,---,0.00,VWS V14.01,2013-12-05 17:17:00,
2013-12-05 09:22:00,32.3,23.3,30.04,East,98,0.0,0.0,69,0.00,,---,0.00,VWS V14.01,2013-12-05 17:22:00,
2013-12-05 09:27:00,33.0,23.2,30.05,East,100,2.0,0.0,67,0.00,,---,0.00,VWS V14.01,2013-12-05 17:27:00,
2013-12-05 09:32:00,33.8,23.7,30.04,East,97,0.0,0.0,66,0.00,,---,0.00,VWS V14.01,2013-12-05 17:32:00,
2013-12-05 09:37:00,34.5,24.3,30.05,East,98,0.0,0.0,66,0.00,,---,0.00,VWS V14.01,2013-12-05 17:37:00,
2013-12-05 09:42:00,35.1,24.9,30.05,East,98,0.0,0.0,66,0.00,,---,0.00,VWS V14.01,2013-12-05 17:42:00,
2013-12-05 09:47:00,35.7,25.5,30.05,East,98,0.0,0.0,66,0.00,,---,0.00,VWS V14.01,2013-12-05 17:47:00,
2013-12-05 09:52:00,36.3,24.9,30.05,East,97,0.0,0.0,63,0.00,,---,0.00,VWS V14.01,2013-12-05 17:52:00,
2013-12-05 09:58:00,37.1,25.7,30.05,East,98,0.0,0.0,63,0.00,,---,0.00,VWS V14.01,2013-12-05 17:58:00,
2013-12-05 10:03:00,37.9,25.3,30.05,North,355,0.0,0.0,60,0.00,,---,0.00,VWS V14.01,2013-12-05 18:03:00,
2013-12-05 10:08:00,38.6,25.5,30.05,North,360,0.0,0.0,59,0.00,,---,0.00,VWS V14.01,2013-12-05 18:08:00,
2013-12-05 10:13:00,39.1,25.6,30.05,North,360,0.0,0.0,58,0.00,,---,0.00,VWS V14.01,2013-12-05 18:13:00,
2013-12-05 10:18:00,39.5,25.5,30.05,NNW,344,0.0,0.0,57,0.00,,---,0.00,VWS V14.01,2013-12-05 18:18:00,
2013-12-05 10:23:00,39.8,25.0,30.05,West,263,0.0,0.0,55,0.00,,---,0.00,VWS V14.01,2013-12-05 18:23:00,
2013-12-05 10:28:00,39.9,25.1,30.05,WNW,292,1.0,0.0,55,0.00,,---,0.00,VWS V14.01,2013-12-05 18:28:00,
2013-12-05 10:33:00,40.1,25.2,30.05,West,277,0.0,0.0,55,0.00,,---,0.00,VWS V14.01,2013-12-05 18:33:00,
2013-12-05 10:38:00,40.2,24.9,30.05,West,276,2.0,0.0,54,0.00,,---,0.00,VWS V14.01,2013-12-05 18:38:00,
2013-12-05 10:43:00,40.4,25.1,30.05,NE,43,2.0,0.0,54,0.00,,---,0.00,VWS V14.01,2013-12-05 18:43:00,
2013-12-05 10:48:00,40.7,25.8,30.05,NNW,346,0.0,0.0,55,0.00,,---,0.00,VWS V14.01,2013-12-05 18:48:00,
2013-12-05 10:53:00,40.9,25.5,30.05,ENE,59,0.0,0.0,54,0.00,,---,0.00,VWS V14.01,2013-12-05 18:53:00,
2013-12-05 10:58:00,41.1,25.7,30.05,North,351,3.0,0.0,54,0.00,,---,0.00,VWS V14.01,2013-12-05 18:58:00,
2013-12-05 11:03:00,41.3,25.9,30.05,West,273,1.0,0.0,54,0.00,,---,0.00,VWS V14.01,2013-12-05 19:03:00,
2013-12-05 11:08:00,41.4,25.6,30.05,NNE,16,1.0,0.0,53,0.00,,---,0.00,VWS V14.01,2013-12-05 19:08:00,
2013-12-05 11:13:00,41.6,25.3,30.05,WNW,282,1.0,0.0,52,0.00,,---,0.00,VWS V14.01,2013-12-05 19:13:00,
2013-12-05 11:18:00,41.9,25.6,30.05,NNE,26,2.0,0.0,52,0.00,,---,0.00,VWS V14.01,2013-12-05 19:18:00,
2013-12-05 11:23:00,42.5,26.1,30.04,NNE,18,1.0,0.0,52,0.00,,---,0.00,VWS V14.01,2013-12-05 19:23:00,
2013-12-05 11:28:00,43.0,25.2,30.04,West,272,3.0,0.0,49,0.00,,---,0.00,VWS V14.01,2013-12-05 19:28:00,
2013-12-05 11:33:00,43.5,25.6,30.04,NW,325,0.0,0.0,49,0.00,,---,0.00,VWS V14.01,2013-12-05 19:33:00,
2013-12-05 11:38:00,43.4,25.5,30.04,WNW,288,2.0,0.0,49,0.00,,---,0.00,VWS V14.01,2013-12-05 19:38:00,
2013-12-05 11:43:00,43.4,26.0,30.03,North,355,2.0,0.0,50,0.00,,---,0.00,VWS V14.01,2013-12-05 19:43:00,
2013-12-05 11:48:00,43.4,25.5,30.03,ESE,102,1.0,0.0,49,0.00,,---,0.00,VWS V14.01,2013-12-05 19:48:00,
2013-12-05 11:53:00,43.5,26.1,30.03,NE,40,4.0,0.0,50,0.00,,---,0.00,VWS V14.01,2013-12-05 19:53:00,
2013-12-05 11:58:00,43.8,25.4,30.03,NW,316,0.0,0.0,48,0.00,,---,0.00,VWS V14.01,2013-12-05 19:58:00,
2013-12-05 12:03:00,44.3,26.4,30.03,North,349,0.0,0.0,49,0.00,,---,0.00,VWS V14.01,2013-12-05 20:03:00,
2013-12-05 12:08:00,44.7,26.7,30.02,North,9,2.0,0.0,49,0.00,,---,0.00,VWS V14.01,2013-12-05 20:08:00,
2013-12-05 12:13:00,44.9,25.9,30.03,ENE,63,2.0,0.0,47,0.00,,---,0.00,VWS V14.01,2013-12-05 20:13:00,
2013-12-05 12:18:00,44.6,25.1,30.03,East,92,1.0,0.0,46,0.00,,---,0.00,VWS V14.01,2013-12-05 20:18:00,
2013-12-05 12:23:00,44.5,26.0,30.03,North,5,0.0,0.0,48,0.00,,---,0.00,VWS V14.01,2013-12-05 20:23:00,
2013-12-05 12:28:00,44.9,25.9,30.03,NNW,333,0.0,0.0,47,0.00,,---,0.00,VWS V14.01,2013-12-05 20:28:00,
2013-12-05 12:34:00,45.2,26.7,30.02,NW,323,0.0,0.0,48,0.00,,---,0.00,VWS V14.01,2013-12-05 20:34:00,
2013-12-05 12:39:00,45.3,25.8,30.02,NNW,331,1.0,0.0,46,0.00,,---,0.00,VWS V14.01,2013-12-05 20:39:00,
2013-12-05 12:44:00,45.6,26.0,30.02,North,351,1.0,0.0,46,0.00,,---,0.00,VWS V14.01,2013-12-05 20:44:00,
2013-12-05 12:49:00,45.6,25.5,30.02,West,269,1.0,0.0,45,0.00,,---,0.00,VWS V14.01,2013-12-05 20:49:00,
2013-12-05 12:54:00,45.9,25.8,30.02,NNE,17,0.0,0.0,45,0.00,,---,0.00,VWS V14.01,2013-12-05 20:54:00,
2013-12-05 12:59:00,46.7,24.8,30.02,NNW,332,0.0,0.0,42,0.00,,---,0.00,VWS V14.01,2013-12-05 20:59:00,
2013-12-05 13:04:00,47.3,24.8,30.01,NNW,331,1.0,0.0,41,0.00,,---,0.00,VWS V14.01,2013-12-05 21:04:00,
2013-12-05 13:09:00,47.8,22.8,30.02,NE,41,1.0,0.0,37,0.00,,---,0.00,VWS V14.01,2013-12-05 21:09:00,
2013-12-05 13:14:00,47.4,21.1,30.01,East,99,2.0,0.0,35,0.00,,---,0.00,VWS V14.01,2013-12-05 21:14:00,
2013-12-05 13:19:00,47.1,22.2,30.02,NNW,329,4.0,0.0,37,0.00,,---,0.00,VWS V14.01,2013-12-05 21:19:00,
2013-12-05 13:24:00,47.7,21.4,30.01,West,277,0.0,0.0,35,0.00,,---,0.00,VWS V14.01,2013-12-05 21:24:00,
2013-12-05 13:29:00,48.2,21.9,30.01,North,10,2.0,0.0,35,0.00,,---,0.00,VWS V14.01,2013-12-05 21:29:00,
2013-12-05 13:34:00,48.9,21.8,30.01,NNW,347,0.0,0.0,34,0.00,,---,0.00,VWS V14.01,2013-12-05 21:34:00,
2013-12-05 13:39:00,49.3,21.4,30.01,West,278,2.0,0.0,33,0.00,,---,0.00,VWS V14.01,2013-12-05 21:39:00,
2013-12-05 13:44:00,48.7,20.9,30.01,NNW,331,2.0,0.0,33,0.00,,---,0.00,VWS V14.01,2013-12-05 21:44:00,
2013-12-05 13:49:00,48.9,20.4,30.01,East,90,1.0,0.0,32,0.00,,---,0.00,VWS V14.01,2013-12-05 21:49:00,
2013-12-05 13:54:00,48.7,20.9,30.01,NE,51,3.0,0.0,33,0.00,,---,0.00,VWS V14.01,2013-12-05 21:54:00,
2013-12-05 13:59:00,49.3,20.7,30.01,WNW,299,0.0,0.0,32,0.00,,---,0.00,VWS V14.01,2013-12-05 21:59:00,
2013-12-05 14:04:00,49.7,19.5,30.01,ENE,76,1.0,0.0,30,0.00,,---,0.00,VWS V14.01,2013-12-05 22:04:00,
2013-12-05 14:09:00,49.3,20.0,30.01,NNW,346,2.0,0.0,31,0.00,,---,0.00,VWS V14.01,2013-12-05 22:09:00,
2013-12-05 14:14:00,49.2,19.9,30.01,NNE,15,0.0,0.0,31,0.00,,---,0.00,VWS V14.01,2013-12-05 22:14:00,
2013-12-05 14:19:00,49.4,20.0,30.01,North,11,0.0,0.0,31,0.00,,---,0.00,VWS V14.01,2013-12-05 22:19:00,
2013-12-05 14:24:00,49.9,21.2,30.01,West,281,0.0,0.0,32,0.00,,---,0.00,VWS V14.01,2013-12-05 22:24:00,
2013-12-05 14:29:00,50.0,19.8,30.01,NE,36,0.0,0.0,30,0.00,,---,0.00,VWS V14.01,2013-12-05 22:29:00,
2013-12-05 14:34:00,50.2,20.8,30.01,North,9,4.0,0.0,31,0.00,,---,0.00,VWS V14.01,2013-12-05 22:34:00,
2013-12-05 14:39:00,50.3,20.1,30.01,East,79,0.0,0.0,30,0.00,,---,0.00,VWS V14.01,2013-12-05 22:39:00,
2013-12-05 14:44:00,50.1,19.9,30.01,NNE,28,2.0,0.0,30,0.00,,---,0.00,VWS V14.01,2013-12-05 22:44:00,
2013-12-05 14:49:00,49.7,19.5,30.01,NE,44,2.0,0.0,30,0.00,,---,0.00,VWS V14.01,2013-12-05 22:49:00,
2013-12-05 14:54:00,49.2,19.9,30.01,North,355,0.0,0.0,31,0.00,,---,0.00,VWS V14.01,2013-12-05 22:54:00,
2013-12-05 14:59:00,48.7,19.4,30.01,North,360,1.0,0.0,31,0.00,,---,0.00,VWS V14.01,2013-12-05 22:59:00,
2013-12-05 15:04:00,48.0,18.1,30.01,NE,42,0.0,0.0,30,0.00,,---,0.00,VWS V14.01,2013-12-05 23:04:00,
2013-12-05 15:09:00,47.3,18.2,30.01,ENE,65,0.0,0.0,31,0.00,,---,0.00,VWS V14.01,2013-12-05 23:09:00,
2013-12-05 15:15:00,46.6,18.3,30.01,NW,321,0.0,0.0,32,0.00,,---,0.00,VWS V14.01,2013-12-05 23:15:00,
2013-12-05 15:20:00,46.3,18.8,30.01,NNE,15,0.0,0.0,33,0.00,,---,0.00,VWS V14.01,2013-12-05 23:20:00,
2013-12-05 15:25:00,46.0,18.5,30.01,North,355,0.0,0.0,33,0.00,,---,0.00,VWS V14.01,2013-12-05 23:25:00,
2013-12-05 15:30:00,45.8,18.4,30.01,NNW,346,0.0,0.0,33,0.00,,---,0.00,VWS V14.01,2013-12-05 23:30:00,
2013-12-05 15:35:00,45.6,18.9,30.02,NNW,344,0.0,0.0,34,0.00,,---,0.00,VWS V14.01,2013-12-05 23:35:00,
2013-12-05 15:40:00,45.3,18.6,30.02,NW,325,0.0,0.0,34,0.00,,---,0.00,VWS V14.01,2013-12-05 23:40:00,
2013-12-05 15:45:00,45.0,19.0,30.02,North,5,0.0,0.0,35,0.00,,---,0.00,VWS V14.01,2013-12-05 23:45:00,
2013-12-05 15:50:00,44.8,18.8,30.02,West,281,0.0,0.0,35,0.00,,---,0.00,VWS V14.01,2013-12-05 23:50:00,
2013-12-05 15:55:00,44.5,18.6,30.01,NW,308,0.0,0.0,35,0.00,,---,0.00,VWS V14.01,2013-12-05 23:55:00,
2013-12-05 16:00:00,44.3,19.0,30.01,NW,319,0.0,0.0,36,0.00,,---,0.00,VWS V14.01,2013-12-06 00:00:00,
2013-12-05 16:05:00,44.2,18.3,30.01,NW,316,0.0,0.0,35,0.00,,---,0.00,VWS V14.01,2013-12-06 00:05:00,
2013-12-05 16:10:00,44.0,19.4,30.01,NNW,327,0.0,0.0,37,0.00,,---,0.00,VWS V14.01,2013-12-06 00:10:00,
2013-12-05 16:15:00,43.7,19.1,30.02,NNW,327,0.0,0.0,37,0.00,,---,0.00,VWS V14.01,2013-12-06 00:15:00,
2013-12-05 16:20:00,43.5,19.0,30.02,NNW,327,0.0,0.0,37,0.00,,---,0.00,VWS V14.01,2013-12-06 00:20:00,
2013-12-05 16:25:00,43.2,19.9,30.02,NNW,328,0.0,0.0,39,0.00,,---,0.00,VWS V14.01,2013-12-06 00:25:00,
2013-12-05 16:30:00,42.7,19.5,30.02,NNW,327,0.0,0.0,39,0.00,,---,0.00,VWS V14.01,2013-12-06 00:30:00,
2013-12-05 16:35:00,42.2,19.6,30.02,NNW,327,0.0,0.0,40,0.00,,---,0.00,VWS V14.01,2013-12-06 00:35:00,
2013-12-05 16:40:00,41.6,20.8,30.02,NNW,328,0.0,0.0,43,0.00,,---,0.00,VWS V14.01,2013-12-06 00:40:00,
2013-12-05 16:45:00,41.0,20.8,30.02,NNW,327,0.0,0.0,44,0.00,,---,0.00,VWS V14.01,2013-12-06 00:45:00,
2013-12-05 16:50:00,40.5,19.8,30.02,NNW,327,0.0,0.0,43,0.00,,---,0.00,VWS V14.01,2013-12-06 00:50:00,
2013-12-05 16:55:00,40.1,18.9,30.02,NNW,328,0.0,0.0,42,0.00,,---,0.00,VWS V14.01,2013-12-06 00:55:00,
2013-12-05 17:00:00,39.7,18.5,30.02,NNW,327,0.0,0.0,42,0.00,,---,0.00,VWS V14.01,2013-12-06 01:00:00,
2013-12-05 17:05:00,39.3,18.7,30.02,NNW,327,0.0,0.0,43,0.00,,---,0.00,VWS V14.01,2013-12-06 01:05:00,
2013-12-05 17:10:00,39.0,19.0,30.02,NNW,327,0.0,0.0,44,0.00,,---,0.00,VWS V14.01,2013-12-06 01:10:00,
2013-12-05 17:15:00,38.6,20.1,30.02,NNW,327,0.0,0.0,47,0.00,,---,0.00,VWS V14.01,2013-12-06 01:15:00,
2013-12-05 17:20:00,38.3,18.8,30.02,NNW,327,0.0,0.0,45,0.00,,---,0.00,VWS V14.01,2013-12-06 01:20:00,
2013-12-05 17:25:00,38.1,19.2,30.02,NNW,327,0.0,0.0,46,0.00,,---,0.00,VWS V14.01,2013-12-06 01:25:00,
2013-12-05 17:30:00,37.9,18.5,30.02,NNW,327,0.0,0.0,45,0.00,,---,0.00,VWS V14.01,2013-12-06 01:30:00,
2013-12-05 17:35:00,37.8,19.9,30.02,NNW,327,0.0,0.0,48,0.00,,---,0.00,VWS V14.01,2013-12-06 01:35:00,
2013-12-05 17:40:00,37.7,19.8,30.02,NNW,328,0.0,0.0,48,0.00,,---,0.00,VWS V14.01,2013-12-06 01:40:00,
2013-12-05 17:46:00,37.6,19.7,30.02,NNW,327,0.0,0.0,48,0.00,,---,0.00,VWS V14.01,2013-12-06 01:46:00,
2013-12-05 17:51:00,37.3,19.4,30.03,NNW,327,0.0,0.0,48,0.00,,---,0.00,VWS V14.01,2013-12-06 01:51:00,
2013-12-05 17:56:00,37.1,20.2,30.02,NNW,327,0.0,0.0,50,0.00,,---,0.00,VWS V14.01,2013-12-06 01:56:00,
2013-12-05 18:01:00,36.8,19.5,30.02,NNW,327,0.0,0.0,49,0.00,,---,0.00,VWS V14.01,2013-12-06 02:01:00,
2013-12-05 18:06:00,36.6,20.2,30.03,NNW,327,0.0,0.0,51,0.00,,---,0.00,VWS V14.01,2013-12-06 02:06:00,
2013-12-05 18:11:00,36.3,19.0,30.03,NW,325,0.0,0.0,49,0.00,,---,0.00,VWS V14.01,2013-12-06 02:11:00,
2013-12-05 18:16:00,36.1,19.3,30.03,NNW,327,0.0,0.0,50,0.00,,---,0.00,VWS V14.01,2013-12-06 02:16:00,
2013-12-05 18:21:00,35.9,19.5,30.03,NNW,327,0.0,0.0,51,0.00,,---,0.00,VWS V14.01,2013-12-06 02:21:00,
2013-12-05 18:26:00,35.6,19.7,30.03,NNW,328,0.0,0.0,52,0.00,,---,0.00,VWS V14.01,2013-12-06 02:26:00,
2013-12-05 18:31:00,35.4,19.5,30.03,NNW,327,0.0,0.0,52,0.00,,---,0.00,VWS V14.01,2013-12-06 02:31:00,
2013-12-05 18:36:00,35.2,18.9,30.04,NNW,327,0.0,0.0,51,0.00,,---,0.00,VWS V14.01,2013-12-06 02:36:00,
2013-12-05 18:41:00,35.0,19.2,30.04,NNW,327,0.0,0.0,52,0.00,,---,0.00,VWS V14.01,2013-12-06 02:41:00,
2013-12-05 18:46:00,34.7,19.3,30.04,NNW,328,0.0,0.0,53,0.00,,---,0.00,VWS V14.01,2013-12-06 02:46:00,
2013-12-05 18:51:00,34.6,19.7,30.04,NNW,327,0.0,0.0,54,0.00,,---,0.00,VWS V14.01,2013-12-06 02:51:00,
2013-12-05 18:56:00,34.3,19.0,30.03,NNW,327,0.0,0.0,53,0.00,,---,0.00,VWS V14.01,2013-12-06 02:56:00,
2013-12-05 19:01:00,34.1,18.8,30.03,NNW,328,0.0,0.0,53,0.00,,---,0.00,VWS V14.01,2013-12-06 03:01:00,
2013-12-05 19:06:00,33.8,18.9,30.03,NNW,328,0.0,0.0,54,0.00,,---,0.00,VWS V14.01,2013-12-06 03:06:00,
2013-12-05 19:11:00,33.5,19.1,30.04,NW,326,0.0,0.0,55,0.00,,---,0.00,VWS V14.01,2013-12-06 03:11:00,
2013-12-05 19:16:00,33.2,19.2,30.04,NNW,327,0.0,0.0,56,0.00,,---,0.00,VWS V14.01,2013-12-06 03:16:00,
2013-12-05 19:21:00,32.9,19.8,30.04,NNW,327,0.0,0.0,58,0.00,,---,0.00,VWS V14.01,2013-12-06 03:21:00,
2013-12-05 19:26:00,32.7,18.8,30.04,NE,43,0.0,0.0,56,0.00,,---,0.00,VWS V14.01,2013-12-06 03:26:00,
2013-12-05 19:31:00,32.6,19.1,30.04,NE,41,0.0,0.0,57,0.00,,---,0.00,VWS V14.01,2013-12-06 03:31:00,
2013-12-05 19:36:00,32.6,19.5,30.04,NE,42,0.0,0.0,58,0.00,,---,0.00,VWS V14.01,2013-12-06 03:36:00,
2013-12-05 19:41:00,32.6,19.1,30.05,NE,42,0.0,0.0,57,0.00,,---,0.00,VWS V14.01,2013-12-06 03:41:00,
2013-12-05 19:46:00,32.7,19.2,30.05,NE,41,0.0,0.0,57,0.00,,---,0.00,VWS V14.01,2013-12-06 03:46:00,
2013-12-05 19:51:00,32.8,19.3,30.05,NE,41,0.0,0.0,57,0.00,,---,0.00,VWS V14.01,2013-12-06 03:51:00,
2013-12-05 19:56:00,32.8,19.3,30.05,NE,40,0.0,0.0,57,0.00,,---,0.00,VWS V14.01,2013-12-06 03:56:00,
2013-12-05 20:01:00,32.7,19.6,30.05,NE,42,0.0,0.0,58,0.00,,---,0.00,VWS V14.01,2013-12-06 04:01:00,
2013-12-05 20:06:00,32.6,19.5,30.04,NE,43,0.0,0.0,58,0.00,,---,0.00,VWS V14.01,2013-12-06 04:06:00,
2013-12-05 20:11:00,32.5,19.4,30.04,NE,42,0.0,0.0,58,0.00,,---,0.00,VWS V14.01,2013-12-06 04:11:00,
2013-12-05 20:16:00,32.4,19.3,30.04,NE,42,0.0,0.0,58,0.00,,---,0.00,VWS V14.01,2013-12-06 04:16:00,
2013-12-05 20:21:00,32.3,19.6,30.04,NE,43,0.0,0.0,59,0.00,,---,0.00,VWS V14.01,2013-12-06 04:21:00,
2013-12-05 20:26:00,32.2,19.1,30.04,NE,41,0.0,0.0,58,0.00,,---,0.00,VWS V14.01,2013-12-06 04:26:00,
2013-12-05 20:31:00,32.1,19.4,30.05,NE,41,0.0,0.0,59,0.00,,---,0.00,VWS V14.01,2013-12-06 04:31:00,
2013-12-05 20:36:00,32.0,19.3,30.05,NE,42,0.0,0.0,59,0.00,,---,0.00,VWS V14.01,2013-12-06 04:36:00,
2013-12-05 20:41:00,31.9,19.2,30.05,NE,40,0.0,0.0,59,0.00,,---,0.00,VWS V14.01,2013-12-06 04:41:00,
2013-12-05 20:46:00,31.9,19.6,30.05,NE,39,0.0,0.0,60,0.00,,---,0.00,VWS V14.01,2013-12-06 04:46:00,
2013-12-05 20:52:00,31.9,19.6,30.05,NE,38,0.0,0.0,60,0.00,,---,0.00,VWS V14.01,2013-12-06 04:52:00,
2013-12-05 20:57:00,31.8,19.1,30.05,NE,40,0.0,0.0,59,0.00,,---,0.00,VWS V14.01,2013-12-06 04:57:00,
2013-12-05 21:01:00,31.7,19.0,30.05,NE,39,0.0,0.0,59,0.00,,---,0.00,VWS V14.01,2013-12-06 05:01:00,
2013-12-05 21:02:00,31.7,19.0,30.05,NE,40,0.0,0.0,59,0.00,,---,0.00,VWS V14.01,2013-12-06 05:02:00,
2013-12-05 21:07:00,31.6,19.7,30.05,NE,40,1.0,0.0,61,0.00,,---,0.00,VWS V14.01,2013-12-06 05:07:00,
2013-12-05 21:12:00,31.5,19.6,30.05,NE,40,0.0,0.0,61,0.00,,---,0.00,VWS V14.01,2013-12-06 05:12:00,
2013-12-05 21:17:00,31.5,19.2,30.05,NE,39,0.0,0.0,60,0.00,,---,0.00,VWS V14.01,2013-12-06 05:17:00,
2013-12-05 21:22:00,31.4,19.5,30.05,NE,40,0.0,0.0,61,0.00,,---,0.00,VWS V14.01,2013-12-06 05:22:00,
2013-12-05 21:28:00,31.3,19.8,30.05,NE,38,0.0,0.0,62,0.00,,---,0.00,VWS V14.01,2013-12-06 05:28:00,
2013-12-05 21:33:00,31.2,19.7,30.06,NE,38,0.0,0.0,62,0.00,,---,0.00,VWS V14.01,2013-12-06 05:33:00,
2013-12-05 21:38:00,31.2,19.7,30.06,NE,40,0.0,0.0,62,0.00,,---,0.00,VWS V14.01,2013-12-06 05:38:00,
2013-12-05 21:43:00,31.2,20.1,30.06,NE,38,0.0,0.0,63,0.00,,---,0.00,VWS V14.01,2013-12-06 05:43:00,
2013-12-05 21:48:00,31.2,19.7,30.06,NE,38,0.0,0.0,62,0.00,,---,0.00,VWS V14.01,2013-12-06 05:48:00,
2013-12-05 21:53:00,31.1,20.0,30.06,NE,37,0.0,0.0,63,0.00,,---,0.00,VWS V14.01,2013-12-06 05:53:00,
2013-12-05 21:58:00,31.1,20.0,30.06,North,355,0.0,0.0,63,0.00,,---,0.00,VWS V14.01,2013-12-06 05:58:00,
2013-12-05 22:03:00,31.0,19.9,30.06,North,355,0.0,0.0,63,0.00,,---,0.00,VWS V14.01,2013-12-06 06:03:00,
2013-12-05 22:08:00,31.0,19.9,30.06,North,355,0.0,0.0,63,0.00,,---,0.00,VWS V14.01,2013-12-06 06:08:00,
2013-12-05 22:13:00,30.9,19.8,30.06,North,351,0.0,0.0,63,0.00,,---,0.00,VWS V14.01,2013-12-06 06:13:00,
2013-12-05 22:18:00,30.9,20.2,30.06,North,355,0.0,0.0,64,0.00,,---,0.00,VWS V14.01,2013-12-06 06:18:00,
2013-12-05 22:23:00,30.8,20.1,30.06,North,355,0.0,0.0,64,0.00,,---,0.00,VWS V14.01,2013-12-06 06:23:00,
2013-12-05 22:28:00,30.8,20.1,30.06,North,351,0.0,0.0,64,0.00,,---,0.00,VWS V14.01,2013-12-06 06:28:00,
2013-12-05 22:33:00,30.8,20.4,30.07,North,355,0.0,0.0,65,0.00,,---,0.00,VWS V14.01,2013-12-06 06:33:00,
2013-12-05 22:38:00,30.7,20.0,30.07,North,355,0.0,0.0,64,0.00,,---,0.00,VWS V14.01,2013-12-06 06:38:00,
2013-12-05 22:43:00,30.6,19.9,30.07,North,355,0.0,0.0,64,0.00,,---,0.00,VWS V14.01,2013-12-06 06:43:00,
2013-12-05 22:48:00,30.6,19.9,30.07,North,355,0.0,0.0,64,0.00,,---,0.00,VWS V14.01,2013-12-06 06:48:00,
2013-12-05 22:53:00,30.5,19.8,30.07,NE,34,0.0,0.0,64,0.00,,---,0.00,VWS V14.01,2013-12-06 06:53:00,
2013-12-05 22:58:00,30.5,20.1,30.07,NNE,23,0.0,0.0,65,0.00,,---,0.00,VWS V14.01,2013-12-06 06:58:00,
2013-12-05 23:03:00,30.5,20.1,30.07,NNE,21,0.0,0.0,65,0.00,,---,0.00,VWS V14.01,2013-12-06 07:03:00,
2013-12-05 23:08:00,30.5,20.1,30.07,NNE,22,0.0,0.0,65,0.00,,---,0.00,VWS V14.01,2013-12-06 07:08:00,
2013-12-05 23:13:00,30.5,20.1,30.07,NNE,22,0.0,0.0,65,0.00,,---,0.00,VWS V14.01,2013-12-06 07:13:00,
2013-12-05 23:18:00,30.5,20.1,30.07,NNE,22,0.0,0.0,65,0.00,,---,0.00,VWS V14.01,2013-12-06 07:18:00,
2013-12-05 23:23:00,30.4,20.1,30.07,NNE,22,0.0,0.0,65,0.00,,---,0.00,VWS V14.01,2013-12-06 07:23:00,
2013-12-05 23:28:00,30.4,20.1,30.07,NNE,22,0.0,0.0,65,0.00,,---,0.00,VWS V14.01,2013-12-06 07:28:00,
2013-12-05 23:33:00,30.2,19.9,30.07,NNE,24,0.0,0.0,65,0.00,,---,0.00,VWS V14.01,2013-12-06 07:33:00,
2013-12-05 23:38:00,30.1,20.5,30.07,NNE,23,0.0,0.0,67,0.00,,---,0.00,VWS V14.01,2013-12-06 07:38:00,
2013-12-05 23:43:00,29.9,20.3,30.07,NNE,22,0.0,0.0,67,0.00,,---,0.00,VWS V14.01,2013-12-06 07:43:00,
2013-12-05 23:48:00,29.8,20.2,30.07,NNE,32,0.0,0.0,67,0.00,,---,0.00,VWS V14.01,2013-12-06 07:48:00,
2013-12-05 23:53:00,29.8,20.2,30.07,NNE,32,0.0,0.0,67,0.00,,---,0.00,VWS V14.01,2013-12-06 07:53:00,
2013-12-05 23:59:00,29.8,20.2,30.06,NNE,32,0.0,0.0,67,0.00,,---,0.00,VWS V14.01,2013-12-06 07:59:00,